Regional Weather Roundup
Issued by NWS

Home | Current Version | Previous Version | Text Only | Print | Product List | Glossary On
Versions: 1 2 3 4 5 6 7 8 9 10 11 12 13 14 15 16 17 18 19 20 21 22 23 24 25 26 27
000
ASUS42 KKEY 230910
RWRKEY

FLORIDA REGIONAL WEATHER ROUNDUP FOR THE FLORIDA KEYS
NATIONAL WEATHER SERVICE KEY WEST FLORIDA
400 AM EST THU NOV 23 2017

...SOUTH FLORIDA AND THE KEYS...

CITY           SKY/WX    TMP DP  RH WIND       PRES   REMARKS
FORT MYERS     MOCLDY    70  68  93 SE8       29.86F
SW REGIONAL AP MOCLDY    69  69 100 E5        29.87F
NAPLES         CLOUDY    70  68  93 SE3       29.86F
MIAMI          PTCLDY    74  69  85 SE3       29.89S
WEST KENDALL   CLEAR     67  66  97 CALM      29.89S FOG
HOMESTEAD      CLEAR     68  68 100 CALM      29.88F
MARATHON       PTCLDY    77  69  76 SE10      29.87F
KEY WEST INTL  LGT RAIN  77  72  84 SE9       29.88F

...INTERNATIONAL WEATHER...

CITY           SKY/WX    TMP DP  RH WIND       PRES   REMARKS
NASSAU BAHAMAS NOT AVBL
CANCUN MEXICO  RAIN      70  70 100 N8G24     29.90F
COZUMEL MEXICO CLEAR     75  72  88 CALM      29.88F

ADJACENT COASTAL WATERS...

STATION/POSITION TIME  SKY/WX   TEMP    WIND        PRES    WAVE
                                AIR SEA DIR/SP/G            HT/PER
                 (UTC)          (F)     (DEG/KT/KT) (MB)    (FT/S)
PULASKI SHOAL LI 0900            78     170/ 11/ 12 1011.5F
SAND KEY         0850            72                 1012.8R
LONG KEY         NOT AVBL
MOLASSES REEF    0900            78 80  150/ 10/ 12 1012.3F
FOWEY ROCKS      0900            78 78  130/ 13/ 14 1012.6S
Buoy 42097       0830               79                N/A     2/ 4

$$




USA.gov is the U.S. government's official web portal to all federal, state and local government web resources and services.